Wind_Speed
13 10 11 14 1 2 6 9 11 20 19 3 13 10 9 16 6 6 14 21 17 24 30 30 29 28 27 25 23 22 20 20 19 17 16 17 18 20 21 20 19 17 16 15 14 15 14 13 14
14 11 12 7 3 4 7 14 20 20 13 6 6 6 14 13 26 21 18 17 15 20 28 30 29 29 28 25 25 23 21 20 18 17 17 18 20 20 20 19 18 16 14 14 13 14 13 13 13
14 10 4 3 4 8 6 19 17 15 7 9 2 1 10 5 14 10 11 17 13 19 27 29 29 28 28 27 25 23 21 20 18 17 17 18 19 19 19 18 16 15 13 13 13 13 12 11 12
5 6 7 3 10 13 20 22 17 15 7 2 5 9 12 9 10 14 14 13 16 19 26 28 30 29 27 27 26 24 22 20 19 17 16 17 18 18 17 16 14 14 13 12 13 12 11 10 10
10 6 4 6 11 15 18 28 24 8 10 11 5 12 13 14 13 16 16 14 13 17 26 28 30 30 28 27 26 25 23 21 20 18 16 16 17 16 16 15 14 13 13 12 12 11 10 9 7
12 6 3 12 14 15 21 28 23 16 16 4 10 18 14 13 14 15 14 9 5 9 27 28 29 30 29 27 25 24 23 22 21 19 16 16 17 17 16 15 13 13 13 13 13 11 9 7 6
9 5 8 9 14 18 21 27 16 5 10 9 19 8 8 13 10 12 13 9 9 8 18 27 29 28 28 27 26 23 23 22 21 20 18 16 16 16 16 15 14 14 14 13 13 12 10 8 6
20 4 14 14 16 22 24 12 10 22 21 13 3 5 4 10 7 5 10 15 13 14 10 16 27 29 29 28 27 25 22 22 23 22 20 17 16 16 16 16 16 15 15 15 13 12 10 9 7
24 8 12 17 15 19 27 6 17 22 22 17 10 8 17 11 7 1 11 16 20 19 18 15 22 29 29 28 27 25 24 22 23 23 22 20 17 17 17 16 16 16 16 15 14 12 11 9 7
8 7 17 14 16 17 22 16 20 5 23 15 16 13 9 8 3 3 6 9 15 22 25 19 12 27 29 28 27 27 26 26 26 26 25 22 18 17 16 17 17 17 16 15 15 13 12 10 8
18 10 16 20 34 33 29 16 29 21 9 39 30 16 18 9 19 10 9 8 13 10 15 18 13 17 28 29 28 28 28 27 27 27 26 23 21 18 17 19 20 19 18 17 16 14 12 10 9
8 22 25 30 33 32 10 1 6 8 25 23 20 15 16 15 17 31 24 13 8 10 17 16 15 18 24 28 23 27 28 28 29 30 29 26 24 22 22 21 21 21 20 19 17 16 14 13 12
10 16 29 36 34 30 14 5 5 11 13 11 12 13 14 24 23 18 22 26 20 20 16 4 18 24 20 26 23 20 22 28 29 29 30 29 28 26 25 24 23 23 23 22 20 18 17 16 15
21 24 24 28 28 22 4 6 10 9 11 18 18 19 13 14 23 21 24 23 24 21 16 15 36 35 33 40 19 21 27 27 30 34 32 32 32 31 30 28 27 26 25 25 24 22 20 20 18
19 11 12 14 13 7 10 8 9 20 19 21 21 20 19 21 22 23 25 26 26 22 27 24 30 26 27 20 27 36 32 31 29 36 36 33 32 34 34 34 31 30 28 25 26 24 23 22 20
10 4 3 6 9 16 12 9 10 23 25 26 22 21 13 11 14 18 12 9 11 22 14 13 23 21 18 23 36 44 35 34 34 30 34 35 37 26 38 40 39 34 31 29 29 27 25 25 24
6 5 7 11 15 10 9 6 12 27 9 23 22 25 20 19 16 15 20 14 10 11 10 4 7 20 25 34 42 43 35 33 32 32 34 32 35 34 39 43 44 40 38 36 34 30 29 28 29
7 6 9 15 18 18 9 9 12 12 17 24 27 26 26 25 25 22 20 21 18 9 12 14 9 1 21 30 36 38 37 36 35 36 36 38 38 36 37 44 47 43 42 40 40 38 36 35 31
15 15 10 8 13 10 9 5 7 8 5 13 25 30 28 29 28 24 17 21 20 15 12 10 14 13 5 25 31 34 36 35 38 39 36 35 38 38 40 45 48 43 45 44 42 41 40 38 32
11 4 8 9 9 2 5 5 4 5 9 15 14 16 21 27 29 26 21 16 17 16 17 17 16 17 16 14 24 31 33 33 36 38 43 44 43 43 44 45 49 49 45 45 43 42 39 39 34
7 4 7 9 9 7 5 6 5 9 14 26 26 23 21 16 7 18 15 5 5 5 10 15 18 18 18 17 21 25 29 33 33 34 39 47 50 49 49 47 50 55 55 51 52 49 45 44 40
6 11 10 12 4 3 5 5 7 8 10 12 26 12 22 22 21 19 15 15 14 16 13 12 5 8 13 13 12 21 29 35 36 36 40 43 45 51 50 49 46 52 52 52 50 51 49 46 47
8 4 5 6 7 7 8 4 7 9 10 9 9 22 22 19 17 15 13 12 10 7 6 9 7 6 5 7 12 15 19 24 34 39 38 40 44 47 53 51 52 53 51 52 57 58 56 50 47
5 4 7 5 2 4 11 5 10 6 4 7 10 18 15 11 8 6 4 3 6 7 7 9 13 11 12 13 16 16 17 22 26 29 33 43 43 48 47 49 56 54 49 51 58 57 49 48 47
10 3 2 4 1 10 12 5 8 5 3 12 8 14 12 8 6 3 6 9 14 16 20 18 21 24 23 20 19 20 22 26 28 31 34 37 42 49 49 50 51 43 41 50 54 53 54 51 50
9 1 4 3 3 6 9 6 4 9 15 19 16 11 7 2 4 8 12 14 14 12 15 19 20 24 25 25 26 27 27 28 28 31 39 43 42 45 53 51 50 51 43 45 46 53 56 59 54
4 9 7 3 5 2 4 6 11 10 7 8 7 3 2 7 11 14 9 7 14 17 18 22 25 28 31 32 30 26 27 29 34 35 34 36 45 48 47 53 48 47 44 53 54 51 52 55 56
7 5 4 3 2 3 4 1 1 7 6 6 5 7 8 13 19 10 9 14 14 12 19 23 26 26 28 31 32 30 34 29 33 37 39 38 39 47 51 53 56 51 50 51 57 58 54 52 51
5 3 1 3 4 4 2 5 3 5 1 3 6 6 15 19 22 21 20 18 19 15 14 14 17 20 23 27 29 29 31 32 36 39 43 43 40 40 52 55 55 54 48 55 57 55 53 53 53
10 1 2 4 4 4 3 7 8 8 5 11 17 24 22 23 23 23 24 23 24 27 26 29 28 25 22 23 28 33 29 30 34 36 40 45 47 43 46 54 52 50 49 54 49 48 49 45 47
Wind_Direction
270 261 284 306 349 184 245 249 260 279 277 255 14 47 90 49 70 112 138 190 161 167 161 159 160 160 158 158 157 154 154 152 150 148 145 141 137 138 139 139 137 136 131 124 122 121 120 116 108
258 266 291 266 172 241 257 248 249 255 278 82 45 4 66 49 91 115 133 152 151 168 165 162 162 162 160 160 159 157 158 157 154 151 149 146 143 142 143 141 139 136 131 130 128 128 125 119 112
241 256 302 212 208 225 252 249 250 288 103 41 332 95 52 81 76 113 151 154 157 173 169 164 165 164 162 162 163 160 162 162 159 156 154 152 151 151 148 146 144 140 136 136 136 138 131 125 117
230 232 242 244 250 229 244 260 275 299 96 51 9 78 71 66 97 141 165 171 158 174 174 169 168 168 167 166 166 165 165 167 166 162 158 158 158 157 155 154 152 145 143 143 145 146 141 136 125
235 262 232 230 246 260 258 255 265 287 134 213 130 97 82 86 105 134 169 177 169 181 178 175 172 171 172 172 171 171 169 172 172 170 165 165 165 166 165 163 160 154 151 152 153 156 151 147 139
230 212 249 234 251 246 258 261 277 267 292 59 97 86 72 89 92 123 167 177 214 195 179 179 177 175 174 177 176 178 176 177 179 177 173 173 173 173 173 172 169 164 161 163 163 165 165 163 162
225 252 241 254 266 250 254 260 279 293 339 48 111 107 97 85 87 114 161 197 227 193 181 184 183 182 180 181 182 185 185 183 185 186 184 182 181 182 181 181 180 175 173 174 174 175 178 181 185
228 233 257 239 253 263 268 315 160 268 272 305 341 124 118 84 91 146 174 191 212 206 196 192 193 189 186 186 188 190 193 194 191 192 193 191 190 191 190 190 190 187 184 184 184 183 189 194 196
240 235 244 252 243 252 268 260 231 279 293 288 267 67 107 88 38 146 208 189 204 208 200 203 202 195 193 192 193 195 197 201 201 198 199 200 200 199 199 201 200 197 195 193 192 193 197 202 206
210 238 247 258 258 267 279 268 228 184 279 277 306 266 305 324 302 219 216 208 187 204 199 200 203 202 198 197 200 200 200 199 201 204 203 205 207 209 209 209 210 207 203 203 201 200 204 207 208
245 241 254 237 256 262 271 295 219 187 203 265 278 297 287 353 284 338 335 6 236 208 166 187 201 206 206 205 203 204 204 202 201 203 207 206 213 217 217 216 212 212 211 209 210 211 213 213 220
233 247 249 256 250 256 281 313 115 144 204 244 259 280 283 273 247 268 283 282 286 277 223 213 214 211 207 212 206 212 210 206 205 204 205 211 216 219 224 222 218 218 215 216 216 217 221 223 225
212 240 245 250 255 272 269 274 248 227 228 245 268 278 264 246 273 261 276 257 252 277 270 289 179 218 194 214 210 224 228 221 215 212 211 212 215 221 225 227 224 221 220 220 220 222 223 227 230
233 233 239 246 246 256 235 241 253 229 239 252 268 270 267 254 266 273 277 280 255 269 276 209 187 209 236 274 237 232 237 242 232 221 218 215 219 218 222 228 227 222 223 223 224 223 226 227 232
299 257 243 241 263 250 261 287 250 250 243 222 239 250 255 258 253 266 263 266 268 271 272 217 215 225 220 205 246 246 241 237 242 233 222 221 214 222 222 226 229 229 223 222 225 227 227 230 233
294 318 305 270 239 251 186 257 258 253 228 210 222 240 238 247 257 258 262 272 273 258 257 220 224 218 232 216 208 220 230 227 226 229 232 227 221 227 225 223 225 231 229 226 221 223 226 230 232
286 243 257 260 246 217 167 227 246 259 275 185 211 235 242 251 256 258 263 261 289 276 259 213 193 230 224 214 207 215 223 218 225 228 231 236 233 228 223 221 224 223 225 226 225 222 228 226 228
259 235 255 253 252 214 197 212 242 211 167 178 195 211 223 225 231 240 249 253 269 290 264 261 251 178 222 225 217 219 227 230 226 233 235 238 238 234 229 225 229 226 222 222 218 222 222 227 229
247 259 268 315 344 154 190 192 227 269 227 198 206 212 216 224 231 231 236 246 256 268 268 273 272 279 249 227 225 231 225 230 233 230 236 240 241 243 238 232 232 230 224 219 219 216 214 220 230
251 323 320 316 315 325 256 243 280 302 286 273 245 223 219 225 231 231 232 235 241 262 275 278 290 286 282 253 237 243 245 242 244 242 235 238 243 245 242 237 234 231 228 225 223 221 221 227 226
323 299 295 283 303 322 354 331 307 269 254 257 255 252 239 231 188 222 232 34 295 335 326 272 268 269 266 278 255 250 252 255 248 244 242 238 240 241 243 236 234 231 230 228 225 228 228 226 224
264 271 251 265 351 289 32 289 291 283 275 247 235 91 93 85 77 73 72 54 44 41 30 43 4 266 273 278 282 258 253 254 255 254 250 246 242 243 245 242 238 239 232 228 230 229 232 230 230
243 267 18 357 350 14 307 345 284 277 287 77 81 80 75 73 69 57 54 48 50 38 34 31 358 344 324 277 267 278 283 276 267 263 260 257 254 248 245 245 244 239 241 233 229 229 229 229 230
347 24 350 347 14 306 263 216 287 255 216 114 106 99 85 72 60 50 36 324 316 325 321 312 328 326 319 313 307 299 293 276 279 281 278 263 258 254 248 244 246 245 244 237 230 232 231 226 226
337 24 312 330 239 240 93 6 238 268 159 122 108 104 96 74 85 47 348 320 317 309 299 307 302 308 309 308 304 306 302 296 285 282 282 281 268 259 256 247 242 238 247 255 239 234 231 227 226
296 29 139 182 265 302 317 210 242 110 83 91 89 83 77 112 224 263 282 288 275 275 281 287 288 293 298 297 295 289 290 292 295 287 279 279 279 272 260 255 246 245 243 259 260 243 241 238 234
356 245 179 199 248 276 249 276 47 75 81 85 98 127 272 299 286 254 274 323 302 281 266 274 283 286 283 283 285 293 294 294 293 290 285 295 275 273 270 256 247 242 244 229 232 239 237 236 231
250 281 7 340 328 249 259 358 88 38 19 79 25 340 302 339 3 4 328 318 314 290 288 296 288 277 281 280 277 276 280 292 293 290 287 284 287 271 267 263 253 241 236 234 238 240 236 236 233
297 343 298 92 150 187 298 267 166 33 47 34 275 312 42 42 30 19 12 356 347 340 338 328 313 304 289 282 282 282 279 278 293 288 289 285 290 278 266 262 259 252 240 237 239 243 245 239 237
258 268 214 122 281 295 170 281 299 301 295 318 42 41 33 24 13 360 352 343 334 329 320 314 306 303 305 306 292 279 275 281 287 285 288 290 286 284 268 263 259 254 246 242 229 262 255 242 244
Height
1515 1515 1515 1514 1524 1515 1518 1501 1483 1475 1475 1468 1466 1459 1468 1464 1468 1493 1480 1483 1487 1488 1492 1493 1497 1501 1505 1509 1513 1517 1521 1523 1526 1528 1529 1531 1533 1536 1538 1541 1543 1545 1546 1548 1549 1551 1552 1554 1555
1515 1514 1514 1511 1522 1530 1512 1487 1483 1472 1468 1462 1462 1461 1464 1474 1471 1480 1480 1484 1486 1488 1493 1495 1497 1500 1504 1509 1512 1516 1520 1524 1526 1528 1530 1532 1534 1536 1539 1541 1544 1546 1548 1549 1551 1552 1554 1554 1555
1513 1515 1516 1511 1514 1520 1506 1477 1473 1471 1465 1462 1464 1461 1469 1477 1477 1481 1480 1484 1487 1489 1492 1495 1499 1501 1503 1508 1512 1516 1519 1523 1526 1528 1530 1532 1534 1537 1540 1542 1545 1546 1548 1550 1552 1553 1555 1556 1556
1511 1513 1514 1513 1512 1496 1488 1469 1473 1474 1464 1464 1466 1473 1477 1478 1478 1478 1480 1483 1487 1489 1492 1494 1497 1501 1504 1507 1510 1514 1518 1522 1525 1528 1531 1533 1535 1538 1540 1543 1545 1547 1549 1551 1553 1555 1556 1557 1557
1509 1508 1513 1510 1503 1489 1480 1471 1474 1471 1471 1467 1465 1475 1479 1480 1481 1479 1478 1481 1486 1488 1491 1494 1496 1500 1504 1507 1510 1513 1517 1521 1524 1527 1530 1533 1535 1538 1541 1543 1545 1548 1550 1552 1554 1555 1556 1557 1558
1509 1505 1514 1509 1498 1484 1473 1472 1473 1468 1468 1467 1468 1473 1481 1483 1482 1482 1481 1481 1485 1488 1489 1493 1496 1499 1502 1507 1511 1514 1517 1520 1523 1527 1530 1532 1535 1537 1540 1543 1545 1548 1550 1552 1553 1555 1556 1558 1559
1504 1507 1505 1503 1497 1484 1470 1471 1470 1466 1468 1470 1473 1476 1483 1479 1482 1484 1485 1484 1483 1487 1491 1493 1496 1500 1503 1506 1510 1514 1516 1519 1523 1526 1529 1532 1534 1537 1540 1542 1544 1546 1549 1551 1553 1554 1556 1557 1559
1500 1502 1502 1493 1493 1485 1469 1470 1469 1468 1467 1472 1473 1478 1480 1481 1482 1484 1487 1484 1485 1486 1490 1493 1496 1499 1502 1505 1509 1513 1516 1518 1521 1524 1528 1531 1534 1536 1538 1540 1543 1546 1548 1550 1552 1554 1556 1557 1558
1497 1500 1497 1493 1489 1480 1467 1471 1472 1468 1466 1470 1475 1478 1479 1480 1482 1485 1485 1489 1487 1484 1486 1489 1493 1497 1502 1506 1508 1511 1514 1517 1520 1522 1526 1529 1532 1535 1537 1540 1542 1544 1547 1549 1552 1553 1554 1556 1557
1490 1494 1490 1483 1479 1476 1467 1466 1467 1471 1474 1466 1472 1475 1476 1479 1482 1482 1483 1487 1490 1488 1484 1486 1490 1495 1501 1505 1509 1511 1512 1514 1517 1521 1524 1527 1530 1533 1536 1538 1541 1544 1546 1548 1550 1551 1553 1554 1555
1484 1489 1482 1477 1473 1471 1468 1463 1461 1461 1479 1474 1473 1472 1474 1475 1479 1482 1483 1484 1486 1490 1492 1493 1494 1492 1498 1503 1505 1508 1511 1512 1514 1517 1521 1525 1528 1531 1533 1535 1538 1540 1544 1546 1548 1549 1550 1551 1553
1483 1475 1475 1473 1469 1466 1466 1463 1459 1465 1480 1476 1473 1472 1472 1476 1478 1481 1482 1481 1483 1482 1481 1474 1498 1498 1496 1501 1505 1508 1510 1510 1510 1513 1517 1521 1525 1528 1530 1533 1535 1537 1540 1542 1545 1546 1548 1549 1550
1474 1471 1469 1466 1466 1464 1463 1462 1465 1466 1468 1470 1471 1472 1473 1474 1478 1477 1477 1478 1478 1477 1478 1476 1488 1502 1504 1506 1504 1510 1512 1510 1510 1511 1513 1515 1519 1523 1526 1530 1532 1534 1536 1538 1540 1543 1544 1546 1547
1463 1463 1462 1461 1459 1460 1461 1460 1461 1464 1467 1466 1467 1469 1470 1472 1475 1474 1473 1473 1475 1477 1476 1471 1477 1488 1495 1486 1502 1506 1507 1509 1507 1507 1505 1509 1513 1517 1520 1525 1527 1529 1531 1534 1536 1537 1539 1541 1542
1458 1461 1456 1455 1454 1457 1457 1461 1460 1459 1460 1461 1464 1466 1467 1470 1472 1473 1472 1472 1474 1477 1479 1478 1481 1483 1480 1486 1497 1500 1500 1498 1503 1505 1502 1502 1504 1510 1513 1518 1521 1524 1526 1528 1532 1533 1535 1536 1539
1461 1456 1469 1454 1452 1451 1457 1470 1456 1455 1455 1456 1460 1463 1464 1466 1468 1469 1469 1469 1471 1473 1472 1473 1476 1478 1480 1478 1483 1489 1490 1492 1493 1492 1499 1498 1500 1499 1504 1510 1512 1515 1521 1523 1523 1527 1528 1529 1532
1462 1476 1467 1459 1447 1449 1453 1463 1450 1450 1449 1450 1457 1459 1460 1462 1465 1465 1466 1466 1468 1469 1471 1468 1471 1474 1474 1475 1480 1485 1486 1486 1487 1491 1492 1493 1497 1500 1500 1501 1505 1506 1508 1513 1516 1518 1524 1524 1526
1475 1471 1464 1457 1442 1441 1451 1454 1446 1447 1445 1448 1452 1454 1456 1458 1460 1461 1463 1462 1465 1465 1464 1465 1468 1468 1469 1473 1475 1478 1480 1480 1482 1484 1487 1489 1491 1494 1495 1498 1501 1504 1504 1506 1506 1503 1510 1515 1521
1455 1457 1457 1444 1434 1433 1445 1447 1446 1443 1445 1447 1447 1449 1452 1453 1454 1456 1458 1459 1460 1462 1462 1461 1463 1466 1466 1472 1474 1476 1476 1475 1478 1481 1483 1486 1488 1490 1490 1492 1494 1497 1498 1500 1504 1501 1498 1506 1516
1451 1454 1456 1446 1439 1440 1444 1446 1440 1440 1440 1441 1442 1443 1445 1447 1449 1453 1455 1456 1456 1458 1459 1460 1460 1462 1464 1466 1468 1470 1470 1472 1473 1476 1480 1481 1481 1482 1484 1484 1485 1488 1490 1493 1498 1500 1496 1500 1507
1451 1453 1456 1456 1444 1441 1444 1453 1445 1440 1438 1436 1437 1438 1440 1443 1446 1449 1452 1454 1453 1455 1455 1458 1459 1458 1460 1461 1463 1466 1467 1467 1469 1471 1471 1472 1472 1473 1474 1475 1476 1477 1478 1481 1485 1488 1489 1492 1495
1459 1445 1444 1446 1455 1471 1447 1481 1452 1442 1437 1430 1430 1439 1440 1441 1445 1450 1452 1452 1452 1454 1454 1456 1458 1459 1459 1460 1460 1461 1462 1462 1462 1465 1465 1467 1467 1465 1467 1468 1469 1473 1474 1476 1479 1482 1483 1487 1487
1448 1440 1445 1448 1458 1463 1459 1476 1451 1440 1440 1438 1438 1439 1440 1440 1443 1447 1448 1450 1451 1452 1453 1455 1457 1457 1457 1457 1457 1457 1459 1460 1460 1459 1460 1461 1461 1461 1458 1457 1459 1462 1465 1466 1467 1470 1473 1475 1481
1438 1442 1448 1453 1463 1485 1457 1470 1457 1445 1437 1440 1438 1440 1442 1443 1443 1446 1447 1447 1448 1450 1452 1452 1451 1452 1453 1453 1454 1454 1454 1453 1452 1451 1452 1453 1453 1451 1451 1452 1451 1454 1461 1462 1462 1461 1466 1469 1474
1443 1453 1482 1488 1486 1478 1459 1474 1457 1438 1430 1433 1439 1440 1441 1442 1443 1445 1446 1447 1447 1448 1448 1449 1449 1449 1449 1449 1449 1449 1449 1449 1447 1445 1442 1444 1443 1441 1441 1446 1445 1446 1452 1456 1461 1460 1462 1463 1465
1449 1454 1485 1494 1490 1476 1449 1465 1446 1436 1436 1437 1438 1441 1443 1444 1444 1444 1444 1444 1444 1445 1445 1445 1445 1444 1444 1443 1442 1443 1442 1440 1439 1438 1436 1434 1433 1431 1432 1433 1437 1441 1431 1449 1451 1454 1457 1456 1454
1451 1457 1452 1469 1463 1479 1461 1446 1446 1439 1440 1439 1440 1441 1443 1443 1443 1441 1441 1441 1441 1442 1443 1443 1442 1441 1439 1438 1436 1435 1436 1434 1432 1428 1428 1426 1425 1422 1421 1421 1425 1425 1424 1432 1434 1441 1444 1449 1445
1451 1446 1468 1467 1480 1480 1458 1451 1458 1449 1445 1443 1442 1441 1440 1440 1439 1441 1443 1442 1440 1440 1440 1439 1438 1435 1433 1432 1430 1428 1427 1426 1424 1421 1419 1418 1415 1414 1410 1407 1410 1418 1423 1428 1428 1425 1429 1437 1438
1455 1456 1454 1466 1476 1487 1482 1466 1441 1444 1441 1439 1438 1438 1441 1442 1442 1442 1441 1440 1438 1436 1435 1433 1432 1430 1427 1424 1421 1418 1416 1417 1416 1413 1410 1408 1406 1404 1400 1397 1400 1403 1411 1414 1416 1417 1418 1419 1429
1445 1448 1453 1481 1482 1473 1479 1465 1440 1440 1437 1435 1441 1443 1442 1442 1441 1440 1439 1437 1434 1432 1430 1427 1424 1422 1419 1416 1414 1411 1409 1407 1406 1404 1402 1400 1398 1395 1390 1390 1390 1390 1394 1398 1405 1409 1420 1419 1421